When you browse on this site, cookies collect data to enhance your experience and personalize the content and advertising you see.
Visit our Privacy Policy to learn more. By continuing to use the site, you agree to this use of cookies and data.
  • In Schweiz
  • Länderverzeichnis
  • Für 7 Tage
  • Wassertemperatur
  • Wetterkarte
  • Widgets
  • user-avatar
    Anmelden

    Stündliche Wetter Bordeaux

    Heute, 29 Mai, Freitag

    Zeit Temperatur Niederschläge Wind Luftdruck Luftfeuchtigkeit
    00:00 +19°C° 0 mm 3 m/S 763 mmHg 73%
    01:00 +18°C° 0 mm 2 m/S 763 mmHg 75%
    02:00 +17°C° 0 mm 2 m/S 762 mmHg 77%
    03:00 +17°C° 0 mm 2 m/S 762 mmHg 79%
    04:00 +17°C° 0 mm 2 m/S 762 mmHg 77%
    05:00 +17°C° 0 mm 2 m/S 762 mmHg 75%
    06:00 +18°C° 0 mm 2 m/S 762 mmHg 74%
    07:00 +20°C° 0 mm 3 m/S 762 mmHg 66%
    08:00 +22°C° 0 mm 3 m/S 762 mmHg 59%
    09:00 +25°C° 0 mm 3 m/S 762 mmHg 52%
    10:00 +26°C° 0 mm 3 m/S 762 mmHg 47%
    11:00 +28°C° 0 mm 3 m/S 761 mmHg 43%
    12:00 +29°C° 0 mm 3 m/S 761 mmHg 39%
    13:00 +30°C° 0 mm 3 m/S 761 mmHg 37%
    14:00 +30°C° 0 mm 3 m/S 761 mmHg 36%
    15:00 +30°C° 0 mm 3 m/S 760 mmHg 34%
    16:00 +29°C° 0 mm 3 m/S 760 mmHg 39%
    17:00 +28°C° 0 mm 4 m/S 760 mmHg 44%
    18:00 +26°C° 0 mm 4 m/S 759 mmHg 49%
    19:00 +23°C° 0 mm 4 m/S 760 mmHg 52%
    20:00 +22°C° 0 mm 3 m/S 760 mmHg 55%
    21:00 +20°C° 0 mm 3 m/S 760 mmHg 59%
    22:00 +19°C° 0 mm 3 m/S 760 mmHg 57%
    23:00 +18°C° 0 mm 3 m/S 760 mmHg 56%

    Morgen, 30 Mai, Samstag

    Zeit Temperatur Niederschläge Wind Luftdruck Luftfeuchtigkeit
    00:00 +17°C° 0 mm 2 m/S 760 mmHg 55%
    01:00 +16°C° 0 mm 2 m/S 760 mmHg 58%
    02:00 +15°C° 0 mm 2 m/S 760 mmHg 60%
    03:00 +14°C° 0 mm 2 m/S 760 mmHg 63%
    04:00 +15°C° 0 mm 2 m/S 760 mmHg 69%
    05:00 +15°C° 0 mm 2 m/S 760 mmHg 74%
    06:00 +16°C° 0 mm 2 m/S 760 mmHg 79%
    07:00 +18°C° 0 mm 2 m/S 760 mmHg 73%
    08:00 +21°C° 0 mm 2 m/S 760 mmHg 66%
    09:00 +24°C° 0 mm 2 m/S 760 mmHg 60%
    10:00 +26°C° 0 mm 2 m/S 760 mmHg 54%
    11:00 +27°C° 0 mm 2 m/S 759 mmHg 47%
    12:00 +29°C° 0 mm 2 m/S 759 mmHg 41%
    13:00 +29°C° 0 mm 2 m/S 759 mmHg 39%
    14:00 +30°C° 0 mm 2 m/S 759 mmHg 37%
    15:00 +30°C° 0 mm 2 m/S 758 mmHg 35%
    16:00 +29°C° 0 mm 2 m/S 758 mmHg 40%
    17:00 +28°C° 0 mm 3 m/S 758 mmHg 45%
    18:00 +27°C° 0 mm 3 m/S 758 mmHg 50%
    19:00 +25°C° 0 mm 3 m/S 758 mmHg 56%
    20:00 +22°C° 0 mm 3 m/S 758 mmHg 62%
    21:00 +20°C° 0 mm 3 m/S 758 mmHg 68%
    22:00 +19°C° 0 mm 3 m/S 758 mmHg 68%
    23:00 +19°C° 0 mm 2 m/S 758 mmHg 69%

    übermorgen, 31 Mai, Sonntag

    Zeit Temperatur Niederschläge Wind Luftdruck Luftfeuchtigkeit
    00:00 +18°C° 0 mm 2 m/S 758 mmHg 70%
    01:00 +17°C° 0 mm 2 m/S 758 mmHg 69%
    02:00 +17°C° 0 mm 2 m/S 758 mmHg 68%
    03:00 +16°C° 0 mm 2 m/S 758 mmHg 67%
    04:00 +16°C° 0 mm 2 m/S 758 mmHg 67%
    05:00 +17°C° 0 mm 2 m/S 758 mmHg 67%
    06:00 +17°C° 0 mm 2 m/S 758 mmHg 68%
    07:00 +19°C° 0 mm 2 m/S 758 mmHg 63%
    08:00 +23°C° 0 mm 2 m/S 758 mmHg 59%
    09:00 +25°C° 0 mm 2 m/S 758 mmHg 55%
    10:00 +27°C° 0 mm 2 m/S 758 mmHg 50%
    11:00 +28°C° 0 mm 3 m/S 758 mmHg 46%
    12:00 +30°C° 0 mm 3 m/S 758 mmHg 41%
    13:00 +30°C° 0 mm 3 m/S 757 mmHg 39%
    14:00 +31°C° 0 mm 3 m/S 757 mmHg 38%
    15:00 +31°C° 0 mm 3 m/S 757 mmHg 37%
    16:00 +30°C° 0 mm 3 m/S 757 mmHg 41%
    17:00 +29°C° 0 mm 3 m/S 756 mmHg 46%
    18:00 +28°C° 0 mm 3 m/S 756 mmHg 51%
    19:00 +26°C° 0 mm 3 m/S 757 mmHg 55%
    20:00 +24°C° 0 mm 3 m/S 757 mmHg 59%
    21:00 +21°C° 0 mm 3 m/S 758 mmHg 63%
    22:00 +20°C° 0 mm 3 m/S 758 mmHg 63%
    23:00 +19°C° 0 mm 3 m/S 758 mmHg 62%

    1 Juni, Montag

    Zeit Temperatur Niederschläge Wind Luftdruck Luftfeuchtigkeit
    00:00 +18°C° 0 mm 2 m/S 758 mmHg 62%
    01:00 +18°C° 0 mm 2 m/S 758 mmHg 64%
    02:00 +17°C° 0 mm 2 m/S 758 mmHg 66%
    03:00 +16°C° 0 mm 2 m/S 758 mmHg 68%
    04:00 +17°C° 0 mm 2 m/S 758 mmHg 70%
    05:00 +17°C° 0 mm 2 m/S 758 mmHg 71%
    06:00 +18°C° 0 mm 2 m/S 758 mmHg 72%
    07:00 +20°C° 0 mm 2 m/S 758 mmHg 67%
    08:00 +23°C° 0 mm 2 m/S 759 mmHg 62%
    09:00 +26°C° 0 mm 1 m/S 759 mmHg 57%
    10:00 +28°C° 0 mm 1 m/S 759 mmHg 52%
    11:00 +29°C° 0 mm 1 m/S 759 mmHg 47%
    12:00 +31°C° 0 mm 1 m/S 759 mmHg 41%
    13:00 +31°C° 0 mm 2 m/S 759 mmHg 39%
    14:00 +31°C° 0 mm 2 m/S 759 mmHg 38%
    15:00 +31°C° 0 mm 3 m/S 759 mmHg 36%
    16:00 +30°C° 0 mm 3 m/S 759 mmHg 41%
    17:00 +28°C° 0 mm 3 m/S 759 mmHg 47%
    18:00 +27°C° 0 mm 3 m/S 759 mmHg 52%
    19:00 +25°C° 0 mm 3 m/S 759 mmHg 61%
    20:00 +22°C° 0 mm 3 m/S 760 mmHg 69%
    21:00 +20°C° 0 mm 2 m/S 760 mmHg 77%
    22:00 +20°C° 0 mm 2 m/S 760 mmHg 80%
    23:00 +19°C° 0 mm 2 m/S 760 mmHg 82%

    2 Juni, Dienstag

    Zeit Temperatur Niederschläge Wind Luftdruck Luftfeuchtigkeit
    00:00 +19°C° 0 mm 1 m/S 760 mmHg 84%
    01:00 +19°C° 0 mm 1 m/S 759 mmHg 85%
    02:00 +18°C° 0 mm 1 m/S 759 mmHg 86%
    03:00 +18°C° 0 mm 1 m/S 759 mmHg 87%
    04:00 +19°C° 0 mm 1 m/S 759 mmHg 84%
    05:00 +19°C° 0 mm 1 m/S 759 mmHg 82%
    06:00 +20°C° 0 mm 1 m/S 760 mmHg 80%
    07:00 +22°C° 0 mm 1 m/S 760 mmHg 71%
    08:00 +24°C° 0 mm 1 m/S 760 mmHg 61%
    09:00 +27°C° 0 mm 1 m/S 760 mmHg 52%
    10:00 +28°C° 0 mm 1 m/S 760 mmHg 47%
    11:00 +29°C° 0 mm 1 m/S 759 mmHg 43%
    12:00 +30°C° 0 mm 1 m/S 759 mmHg 39%
    13:00 +30°C° 0 mm 2 m/S 759 mmHg 39%
    14:00 +30°C° 0 mm 3 m/S 758 mmHg 39%
    15:00 +30°C° 0 mm 3 m/S 758 mmHg 39%
    16:00 +28°C° 0 mm 3 m/S 758 mmHg 45%
    17:00 +27°C° 0 mm 3 m/S 757 mmHg 51%
    18:00 +26°C° 0 mm 3 m/S 757 mmHg 57%
    19:00 +24°C° 0 mm 2 m/S 757 mmHg 66%
    20:00 +21°C° 0 mm 2 m/S 757 mmHg 75%
    21:00 +19°C° 0 mm 2 m/S 758 mmHg 84%
    22:00 +18°C° 0 mm 2 m/S 757 mmHg 85%
    23:00 +19°C° 0 mm 1 m/S 757 mmHg 86%

    3 Juni, Mittwoch

    Zeit Temperatur Niederschläge Wind Luftdruck Luftfeuchtigkeit
    00:00 +18°C° 0 mm 1 m/S 757 mmHg 87%
    01:00 +18°C° 0 mm 1 m/S 756 mmHg 88%
    02:00 +18°C° 0 mm 1 m/S 756 mmHg 89%
    03:00 +18°C° 0 mm 1 m/S 755 mmHg 90%
    04:00 +19°C° 0 mm 1 m/S 755 mmHg 88%
    05:00 +19°C° 0 mm 1 m/S 755 mmHg 87%
    06:00 +19°C° 0 mm 2 m/S 755 mmHg 86%
    07:00 +20°C° 0 mm 2 m/S 755 mmHg 80%
    08:00 +23°C° 0 mm 2 m/S 755 mmHg 74%
    09:00 +24°C° 0 mm 2 m/S 755 mmHg 67%
    10:00 +25°C° 0 mm 2 m/S 755 mmHg 63%
    11:00 +26°C° 0 mm 3 m/S 755 mmHg 58%
    12:00 +27°C° 0 mm 3 m/S 755 mmHg 53%
    13:00 +27°C° 0 mm 3 m/S 755 mmHg 52%
    14:00 +28°C° 0 mm 3 m/S 754 mmHg 51%
    15:00 +28°C° 0 mm 3 m/S 754 mmHg 49%
    16:00 +27°C° 0 mm 3 m/S 754 mmHg 55%
    17:00 +26°C° 0 mm 3 m/S 754 mmHg 60%
    18:00 +25°C° 0 mm 3 m/S 754 mmHg 65%
    19:00 +23°C° 0 mm 2 m/S 754 mmHg 72%
    20:00 +21°C° 0 mm 2 m/S 754 mmHg 79%
    21:00 +20°C° 0 mm 1 m/S 755 mmHg 86%
    22:00 +20°C° 0.1 mm 1 m/S 754 mmHg 87%
    23:00 +20°C° 0.1 mm 1 m/S 754 mmHg 87%
    Mehr zeigen